sat.trackr.live / text

‹ back to catalog

STARLINK-5887

NORAD 56349 · 2023-058AJ

PAYLOAD ACTIVE UNKNOWN

§ Identity

Operator
Country
US
Launch date
2023-04-27
Launch site
AFWTR
Launch vehicle
Mass (kg)
RCS (m²)

Purposes: comms

External: N2YO · Heavens-Above · Gunter

§ Orbital elements

Epoch: 2026-05-24T23:05:42.967104Z

Period
95.64 min
Inclination
97.4485°
Eccentricity
0.0002122
Mean motion
15.05658747 rev/d
Perigee alt
548.0 km
Apogee alt
551.0 km
Semi-major
6,927.6 km
B*
7.4288e-6
RAAN
144.9708°
Arg perigee
66.7223°
Mean anomaly
293.4228°
Rev number
16,960

§ Raw data

STARLINK-58871 56349U 23058AJ  26144.96230286  .00000049  00000+0  74288-5 0  99942 56349  97.4485 144.9708 0002122  66.7223 293.4228 15.05658747169602

JSON: /api/v1/satellites/56349 · /tle

For live sub-satellite position, see the globe view (requires WebGL).

§ Visibility from observer

Set your observer location to see the next 7 days of passes ≥ 10°. The values pass through the URL so the page stays shareable.

No JS? Fill the form by hand. The geolocation button needs JavaScript.